Temperature
13 14 14 15 18 19 20 20 20 19 19 19 19 20 22 21 22 20 15 15 16 16 16 16 16 16 16 16 16 16 16 16 17 16 16 16 16 16 16 16 16 16 15 16 16 15 15 15 15
13 13 14 16 18 19 20 20 19 19 18 17 17 18 19 18 16 15 14 15 15 16 16 16 16 16 16 16 16 16 16 16 16 16 16 16 16 16 16 16 16 16 15 15 15 15 15 15 15
12 13 15 17 18 20 20 19 19 18 17 17 17 17 17 16 15 14 14 15 15 15 16 16 16 16 16 16 16 16 16 16 16 16 16 16 16 16 16 16 16 16 15 15 15 15 15 15 15
12 13 15 17 17 18 19 18 18 17 17 16 17 17 15 13 13 14 14 15 15 15 15 16 16 16 16 16 16 16 16 16 16 16 16 16 16 16 16 16 16 15 15 15 15 15 15 15 15
12 15 16 16 17 17 17 16 16 18 18 16 17 17 15 13 13 14 14 14 15 15 15 15 15 15 15 16 16 16 16 16 16 16 16 16 16 16 16 16 16 15 15 15 15 15 15 15 15
13 15 16 16 16 16 16 15 16 18 17 16 16 16 14 13 13 14 14 14 15 15 15 15 15 15 15 15 15 15 15 15 16 16 16 16 15 15 15 16 15 15 15 15 15 15 15 15 15
14 15 16 17 16 16 16 15 16 17 17 16 15 16 14 13 13 14 14 14 14 15 15 15 15 15 15 15 15 15 15 15 15 15 15 15 15 15 15 15 15 15 15 15 15 15 15 15 15
12 15 15 16 16 16 15 14 14 16 15 13 14 16 14 12 13 13 14 14 14 14 14 15 15 15 15 15 15 15 15 15 15 15 15 15 15 15 15 15 15 15 15 15 15 15 15 15 15
11 15 15 15 16 15 14 15 13 13 14 13 12 13 12 12 13 13 13 14 14 14 14 14 14 15 15 15 15 15 15 15 15 15 15 15 15 15 15 15 15 15 15 15 15 15 15 15 14
13 14 14 14 15 15 14 14 14 14 15 13 12 11 12 12 12 13 13 13 14 14 14 14 14 14 14 14 14 15 15 15 15 15 15 15 15 15 15 15 15 15 15 15 15 15 14 14 14
12 13 12 12 12 13 13 13 13 15 15 14 13 12 11 12 12 12 13 13 13 13 13 14 14 14 14 14 14 14 14 14 14 14 14 14 14 14 14 14 14 14 14 14 14 14 14 14 14
12 11 11 11 11 12 13 13 13 13 13 12 12 11 11 12 12 12 12 12 13 13 13 13 13 14 14 14 14 14 14 14 14 14 14 14 14 14 14 14 14 14 14 14 14 14 14 14 14
12 11 10 10 10 11 12 12 12 12 11 11 11 11 11 11 11 12 12 12 12 12 13 13 13 13 13 14 14 14 14 14 14 14 14 14 14 14 14 14 14 14 14 14 14 14 13 13 13
11 11 11 11 11 11 12 12 12 11 10 11 11 11 11 11 11 11 11 11 12 12 12 12 13 13 13 13 13 13 13 13 13 13 13 13 13 13 13 13 13 13 13 13 13 13 13 13 13
11 12 12 11 11 11 12 13 12 11 10 11 11 11 10 10 11 11 11 11 11 12 12 12 12 12 12 13 13 13 13 13 13 13 13 13 13 13 13 13 13 13 13 13 13 13 13 13 13
12 13 13 11 11 11 13 13 12 10 11 11 11 10 10 10 10 10 11 11 11 11 11 12 12 12 12 12 12 12 12 12 12 12 12 12 12 12 12 12 12 12 12 12 12 12 12 12 12
12 13 12 12 11 12 13 13 12 10 11 11 11 10 10 10 10 10 10 11 11 11 11 11 11 11 11 11 11 11 11 11 11 12 12 12 12 12 12 12 12 12 12 12 12 12 12 12 12
12 12 12 12 11 11 12 13 12 11 11 11 11 11 10 10 10 10 10 10 10 10 10 10 11 11 11 11 10 11 11 11 11 11 11 11 11 11 11 11 11 11 11 11 11 11 11 11 12
12 12 12 11 10 11 12 12 12 12 11 11 11 11 10 10 9 9 10 10 10 10 10 10 10 10 10 10 10 10 10 10 10 11 11 11 11 11 11 11 11 11 11 11 11 11 11 11 11
11 11 11 10 10 10 11 12 13 12 11 11 11 11 10 10 9 9 9 9 10 10 10 10 10 10 10 10 10 10 10 10 10 10 10 10 10 11 10 10 10 10 10 10 10 10 10 10 10
10 11 10 10 10 10 10 13 13 12 11 10 10 10 10 9 9 9 9 9 9 9 9 9 9 9 9 9 9 9 9 10 10 10 10 10 10 10 10 10 10 10 10 10 10 10 10 10 10
10 9 9 9 11 11 10 12 13 13 12 11 11 10 10 9 9 9 9 9 9 9 9 9 9 9 9 9 9 9 9 9 9 9 9 9 9 10 10 10 10 10 9 9 9 9 9 9 9
9 9 9 9 10 10 10 10 13 12 12 12 12 10 9 9 8 8 9 9 9 9 9 9 9 9 9 8 8 8 8 8 8 9 9 9 9 9 9 9 9 9 9 9 9 9 9 9 9
9 9 9 9 10 10 10 10 12 13 13 12 11 10 9 8 8 8 8 8 8 8 8 8 8 8 8 8 8 8 8 8 8 8 8 8 8 8 8 8 8 9 9 9 9 9 8 8 8
9 10 10 11 11 11 9 9 11 13 12 11 11 10 9 8 8 8 8 8 8 8 8 8 8 8 8 8 8 8 8 7 7 7 7 8 8 8 8 8 8 8 8 8 8 8 8 8 8
9 10 10 11 12 12 9 9 12 12 10 9 9 8 8 8 8 7 7 7 8 8 7 7 7 7 7 7 7 7 7 7 7 7 7 7 7 7 7 7 7 7 7 7 7 7 8 8 8
9 9 9 9 8 9 11 11 11 11 10 9 9 8 8 8 8 7 7 7 7 7 7 7 7 7 7 7 7 7 7 7 7 7 7 7 7 7 7 7 7 7 7 7 7 7 7 7 7
8 9 9 9 10 11 12 11 11 11 12 11 10 10 9 8 8 8 7 7 7 7 7 7 7 7 7 6 6 6 6 6 6 6 6 6 6 6 6 6 6 6 6 6 6 6 6 6 6
8 8 8 9 9 10 11 13 12 11 11 11 10 9 9 8 8 8 8 7 7 7 7 7 7 7 6 6 6 6 6 6 6 6 6 6 6 6 6 6 6 6 6 6 5 6 6 6 6
8 9 9 9 9 8 9 11 12 11 10 10 9 9 8 8 8 8 7 7 7 7 7 6 6 6 6 6 6 6 6 6 6 6 6 5 5 5 5 5 5 5 5 5 5 5 5 5 5
Wind_Speed
1 2 3 4 6 6 11 8 5 7 6 3 2 3 4 3 2 4 4 4 3 3 5 8 8 8 8 9 9 9 9 9 9 9 9 9 9 8 8 8 8 7 7 7 8 8 8 8 8
3 3 4 5 8 11 10 9 8 6 5 5 4 3 4 4 4 5 3 3 3 4 5 7 8 8 8 8 8 8 8 8 8 9 8 8 8 8 7 7 7 7 7 7 7 7 7 7 8
4 3 5 5 8 12 9 8 8 6 5 5 5 3 3 4 3 3 3 2 3 5 6 7 8 7 7 7 7 7 7 7 7 8 8 7 8 8 7 7 7 7 7 7 7 7 7 7 8
5 4 4 7 11 8 4 6 7 9 6 3 6 6 4 4 3 3 3 3 4 5 6 7 7 7 7 6 6 6 6 6 6 6 7 7 7 7 6 7 6 6 7 7 7 7 7 7 8
3 5 7 8 10 6 3 3 6 8 7 6 6 6 5 4 4 4 4 4 5 5 6 7 7 6 6 6 5 5 5 4 5 5 6 6 7 7 6 6 6 7 7 8 8 8 8 8 8
5 5 8 11 10 7 5 3 6 7 7 6 6 7 5 4 4 4 4 4 5 5 5 6 7 7 6 4 3 3 3 3 3 3 4 4 5 6 6 7 7 7 7 8 8 9 8 8 8
4 5 7 10 10 8 5 3 5 7 7 5 4 6 6 4 4 4 4 5 5 5 5 5 4 4 5 4 4 2 2 2 2 3 3 4 4 5 6 6 7 7 8 8 9 9 9 9 8
1 4 6 8 10 8 5 4 3 4 5 3 2 5 6 4 2 3 5 6 6 6 5 5 4 3 2 1 2 1 1 1 2 3 3 4 5 6 7 8 8 8 8 8 9 9 9 9 9
2 3 6 7 8 7 6 5 3 2 5 3 3 3 5 4 3 4 5 5 6 6 5 5 4 4 3 2 1 1 2 2 4 5 4 6 6 7 7 8 7 8 9 9 9 10 10 9 10
1 4 4 2 2 5 6 5 4 5 6 5 5 6 6 5 4 4 4 4 5 5 6 5 5 4 3 2 2 2 2 3 4 4 5 6 6 6 6 6 8 9 9 10 10 10 10 11 10
2 3 4 3 3 4 5 4 2 6 5 4 6 7 5 4 4 4 3 3 4 4 5 5 5 5 4 3 2 2 3 3 4 4 5 5 6 5 6 6 7 9 10 10 9 11 11 10 8
5 4 3 3 2 2 4 4 4 2 3 4 5 6 5 5 3 3 2 3 3 4 5 5 5 4 4 4 3 3 3 3 3 4 5 5 4 5 5 5 6 6 7 8 8 8 9 10 10
6 5 4 4 4 4 5 5 3 3 3 4 5 5 5 4 3 2 2 2 3 3 4 5 5 5 4 3 3 3 3 4 4 4 5 6 5 5 5 6 6 7 7 7 7 8 8 9 9
7 8 6 4 4 2 4 3 3 3 4 5 5 4 3 2 2 1 1 2 3 4 4 5 5 5 4 3 3 3 3 4 4 4 5 6 6 5 5 6 6 6 7 8 8 8 8 8 8
7 9 7 5 3 1 1 2 2 3 4 4 3 3 2 1 1 0 1 2 3 4 5 5 5 5 5 4 4 4 4 4 4 4 5 5 5 6 5 6 6 6 7 8 7 8 8 8 8
4 5 4 3 3 1 2 4 4 4 5 4 3 2 1 0 0 1 2 2 3 4 4 5 4 5 5 4 4 4 4 4 3 4 5 5 6 6 5 5 6 6 7 6 6 6 7 7 8
3 4 4 2 2 1 2 3 5 5 5 5 4 4 3 2 1 1 2 2 3 3 4 5 5 5 5 4 4 3 3 3 3 4 4 5 5 6 5 5 5 6 6 6 6 6 6 7 8
5 5 3 2 2 1 3 4 5 6 7 7 6 5 5 4 3 1 2 3 3 3 4 4 5 5 5 4 3 3 2 3 3 3 4 5 5 5 5 5 6 6 5 6 6 7 7 7 7
6 5 3 1 2 2 4 6 7 7 8 8 7 7 6 5 3 2 2 2 3 3 4 4 5 5 4 3 3 3 3 3 3 3 4 5 5 5 5 5 5 6 6 7 7 6 7 7 5
6 5 2 1 2 2 4 8 8 8 9 8 8 8 7 6 4 3 2 2 3 4 4 5 5 5 4 4 3 3 4 4 4 4 4 5 5 5 4 5 5 5 6 7 7 7 6 5 5
4 2 1 0 1 0 4 5 7 6 7 7 8 8 7 6 6 4 3 3 3 4 4 4 5 5 4 4 3 3 3 3 3 4 4 4 5 4 4 5 5 5 5 6 6 7 7 6 6
2 1 1 0 1 1 2 3 5 5 6 8 8 8 7 6 6 5 4 4 4 4 4 4 4 4 4 4 4 4 4 5 5 5 4 5 5 4 4 5 4 5 5 5 6 6 6 7 6
2 1 1 0 0 2 2 3 5 3 6 7 7 7 7 6 6 6 5 4 4 3 3 4 4 4 4 4 4 5 5 5 5 5 5 5 4 4 4 4 4 4 4 5 6 5 6 6 6
2 2 2 1 2 3 2 4 4 4 5 4 4 5 5 6 5 5 4 4 3 3 3 3 4 4 4 4 4 5 5 5 5 5 5 4 3 3 4 4 4 4 4 5 5 5 5 5 6
0 1 1 1 2 2 2 4 7 4 4 5 5 4 4 4 5 5 4 4 4 4 3 4 4 4 4 4 4 5 5 5 5 5 5 4 3 3 4 4 4 3 4 4 4 4 4 5 5
1 1 1 2 2 2 3 6 5 3 3 4 5 4 4 4 4 5 5 5 5 5 4 4 5 5 4 4 4 4 4 3 4 4 4 4 4 4 4 4 4 4 4 4 3 3 4 4 4
1 1 2 0 1 4 4 5 7 3 4 4 4 4 5 5 5 5 5 6 6 5 5 5 5 5 5 5 5 4 4 4 4 4 4 4 4 4 4 4 3 3 3 3 3 3 3 4 4
1 2 2 1 2 4 4 5 4 3 2 3 4 4 5 5 5 6 6 6 6 6 5 5 5 5 5 5 4 4 4 4 4 4 4 4 4 4 4 4 3 3 3 3 3 3 3 3 3
3 3 2 1 2 3 4 4 2 3 2 3 4 5 5 6 6 6 6 6 6 6 5 5 5 5 5 5 5 4 4 4 4 3 4 4 4 3 3 3 3 3 3 3 3 3 3 3 3
3 4 5 3 3 4 4 6 1 3 4 5 6 6 6 7 7 7 6 6 6 6 6 6 6 6 5 5 5 4 4 3 4 4 4 3 3 3 3 3 3 3 3 3 3 3 3 3 3
Wind_Direction
190 191 190 187 191 209 217 200 190 175 177 174 157 171 167 150 138 110 84 69 65 116 128 129 131 143 144 144 143 144 146 148 150 152 153 154 155 155 152 154 154 151 146 140 136 132 129 128 127
169 173 179 196 209 205 208 196 184 171 153 142 135 140 131 117 65 83 88 48 75 101 115 120 116 128 133 136 140 146 151 153 154 156 158 159 161 162 162 162 160 159 153 147 142 137 137 138 138
159 188 187 191 211 211 193 179 177 148 141 155 141 116 104 102 79 73 42 57 95 95 95 100 107 120 127 128 133 142 148 156 161 161 160 164 167 168 170 169 166 162 156 150 148 148 147 148 147
172 171 189 207 203 207 183 151 159 153 146 139 145 121 99 53 39 42 47 87 101 92 86 93 97 110 117 122 129 135 147 158 160 163 166 166 167 169 172 171 172 167 163 160 160 161 161 161 159
185 185 186 197 197 184 168 132 162 163 152 143 148 128 110 69 55 57 70 88 95 90 78 88 86 93 108 115 123 133 141 151 164 171 177 181 181 178 177 174 176 178 178 175 175 174 174 173 174
175 191 194 190 180 170 161 149 162 155 139 137 142 131 112 87 68 52 62 78 81 83 76 83 81 80 82 97 117 136 149 155 161 173 187 188 189 192 189 187 184 183 188 189 188 187 186 185 185
193 185 190 180 172 171 161 149 160 152 141 129 141 135 129 113 59 53 66 74 73 71 68 67 77 87 83 78 76 93 129 160 180 192 202 202 196 196 199 196 194 194 195 198 198 197 195 194 194
199 161 159 174 172 167 153 139 116 143 125 98 136 146 143 124 67 77 75 69 62 55 49 48 50 50 61 84 74 68 118 186 215 213 216 216 208 206 204 208 204 204 204 205 205 204 202 201 200
217 185 169 168 172 156 151 150 119 103 120 99 79 81 108 112 114 102 85 69 56 45 34 32 31 24 18 1 322 235 204 216 226 217 215 221 226 223 215 217 209 211 212 211 212 210 206 205 203
187 178 162 137 141 144 144 143 142 148 136 121 110 98 106 113 113 99 82 65 50 38 28 22 19 7 359 343 310 274 257 245 244 241 234 237 239 235 238 216 212 216 217 216 214 214 210 215 213
120 128 131 111 99 128 135 127 147 162 153 150 144 134 127 121 109 98 81 60 40 30 22 14 7 0 352 338 323 301 279 263 255 253 250 251 248 242 237 230 217 221 220 222 215 216 220 223 222
113 100 106 112 101 107 127 133 120 124 121 116 131 137 139 130 113 102 79 45 26 18 11 4 359 356 348 333 321 304 288 277 269 259 256 255 251 249 245 239 235 232 230 230 228 230 229 230 229
106 107 87 88 92 92 106 112 113 113 107 117 128 139 140 130 114 83 57 31 15 6 356 352 352 348 341 332 318 305 289 283 277 267 256 251 252 252 248 247 242 239 239 237 238 237 235 235 236
117 110 99 73 83 75 102 106 119 127 126 132 137 139 138 130 127 107 46 19 3 354 346 343 346 343 336 330 319 306 294 285 281 279 271 258 253 254 254 251 249 246 243 242 241 242 240 237 238
123 117 96 57 64 69 132 125 158 150 154 151 150 144 138 118 116 43 11 359 347 344 341 341 339 339 335 327 319 311 303 292 285 279 277 271 261 256 254 252 250 251 249 246 245 244 243 242 239
135 139 126 55 30 13 224 184 160 169 179 184 182 181 179 121 342 354 349 343 342 340 341 341 338 335 332 327 317 312 309 305 298 291 279 271 267 259 252 251 251 253 251 248 246 245 243 243 241
135 145 139 115 30 352 216 195 180 191 203 211 212 215 221 239 269 316 328 332 338 339 337 339 338 332 327 321 313 310 309 309 305 298 295 288 277 268 258 254 253 250 249 246 246 246 245 247 246
151 147 149 152 20 299 225 224 215 211 220 228 228 228 229 237 246 274 305 322 329 335 337 335 333 331 326 319 313 308 305 311 310 305 305 299 290 278 267 260 256 249 245 244 244 248 245 248 249
134 142 137 76 13 306 243 249 246 228 226 230 230 228 230 235 241 258 287 310 320 331 334 333 331 331 328 322 313 305 305 310 310 317 318 308 297 286 273 268 260 251 245 245 246 248 247 245 244
121 127 116 78 20 317 281 270 257 233 230 232 232 230 230 233 234 242 265 294 311 321 326 323 323 323 323 318 312 298 297 298 303 307 311 311 306 297 283 272 266 259 252 247 244 246 249 249 236
80 107 115 23 342 262 304 266 231 222 229 235 235 235 233 232 237 240 252 275 298 311 319 318 316 316 317 315 305 297 288 285 291 296 298 304 304 298 289 279 270 269 261 255 250 245 246 249 242
94 60 97 333 292 298 334 280 247 222 236 233 230 228 232 231 237 244 251 265 284 300 310 308 310 312 313 307 295 293 290 289 294 297 296 300 299 298 296 290 281 274 270 265 258 250 249 249 246
100 106 119 159 215 267 217 253 263 217 242 237 232 232 236 236 239 244 251 263 275 290 302 303 305 308 309 301 294 289 283 285 290 291 293 296 297 300 301 294 285 280 275 274 270 262 253 250 249
138 141 127 153 224 248 216 232 265 221 232 241 238 240 243 244 247 252 254 259 268 282 294 301 301 306 310 303 295 288 286 287 290 293 293 294 296 303 308 300 290 286 280 277 276 269 260 254 253
70 202 208 211 224 240 150 240 255 255 239 250 261 260 254 251 250 251 253 257 263 271 280 289 295 298 302 298 296 291 284 282 283 289 292 294 297 302 307 307 302 297 292 287 283 275 268 261 258
33 326 308 280 274 292 213 243 257 286 269 264 265 266 264 257 252 254 256 258 260 264 268 276 284 289 292 291 293 292 287 284 285 287 288 288 292 294 303 307 304 303 301 295 289 280 274 268 262
146 103 12 352 310 276 255 269 282 234 241 244 250 254 257 259 256 258 259 258 259 259 260 266 274 280 285 286 287 287 286 281 282 283 281 282 284 292 298 298 298 305 306 301 294 278 271 265 261
3 142 175 220 280 282 276 258 249 234 235 237 249 260 269 268 264 261 257 257 258 256 257 259 264 272 279 282 282 283 285 285 283 279 278 278 280 284 289 292 292 298 301 296 285 278 279 272 269
167 180 202 219 268 275 290 276 214 241 284 282 278 282 284 280 274 266 262 259 256 254 253 256 260 266 272 275 276 278 282 284 282 278 282 283 282 282 282 283 285 289 293 288 278 274 270 260 261
234 220 203 232 236 236 270 275 256 253 282 284 287 293 291 286 279 271 265 259 254 253 253 255 257 258 262 265 266 269 274 276 277 280 285 285 282 283 281 282 280 284 285 281 272 266 260 256 257
Height
1509 1511 1515 1518 1519 1514 1509 1508 1510 1513 1515 1518 1518 1517 1516 1518 1520 1528 1530 1528 1529 1531 1533 1534 1535 1537 1538 1539 1540 1541 1542 1542 1543 1543 1544 1544 1544 1545 1545 1545 1545 1545 1545 1545 1545 1545 1545 1545 1545
1509 1512 1516 1517 1511 1509 1506 1506 1511 1512 1516 1518 1519 1520 1520 1522 1526 1527 1528 1528 1530 1531 1533 1534 1535 1537 1538 1539 1540 1541 1542 1542 1543 1544 1544 1544 1545 1545 1545 1545 1545 1545 1545 1545 1545 1545 1545 1545 1545
1508 1511 1515 1512 1507 1502 1502 1507 1509 1514 1517 1518 1519 1521 1522 1525 1527 1527 1528 1528 1530 1532 1533 1534 1535 1536 1538 1539 1540 1541 1542 1542 1543 1544 1544 1544 1545 1545 1545 1545 1545 1545 1545 1545 1545 1546 1546 1546 1546
1509 1513 1514 1509 1506 1505 1505 1509 1511 1514 1517 1518 1519 1522 1525 1526 1527 1527 1528 1529 1531 1532 1533 1534 1535 1536 1537 1538 1539 1540 1541 1542 1543 1543 1544 1544 1544 1545 1545 1545 1545 1545 1545 1545 1545 1545 1546 1546 1546
1508 1509 1507 1506 1506 1508 1510 1512 1513 1512 1515 1518 1519 1521 1525 1526 1526 1527 1528 1530 1531 1532 1533 1534 1535 1536 1537 1538 1539 1540 1540 1541 1542 1542 1543 1543 1544 1544 1544 1545 1545 1545 1545 1545 1545 1545 1545 1545 1545
1508 1506 1502 1502 1505 1510 1512 1514 1514 1513 1516 1519 1520 1522 1526 1527 1527 1528 1529 1530 1531 1532 1533 1534 1535 1535 1536 1537 1538 1539 1539 1540 1541 1541 1542 1542 1543 1543 1543 1544 1544 1544 1544 1544 1544 1544 1544 1545 1545
1506 1502 1499 1499 1505 1509 1513 1515 1515 1514 1516 1520 1521 1522 1526 1527 1527 1528 1529 1530 1531 1532 1533 1533 1534 1535 1535 1536 1537 1537 1538 1539 1539 1540 1541 1541 1541 1542 1542 1542 1542 1543 1543 1543 1543 1543 1543 1544 1544
1505 1504 1503 1502 1503 1508 1513 1515 1517 1517 1518 1521 1522 1523 1526 1527 1527 1528 1529 1530 1531 1531 1532 1533 1533 1534 1534 1535 1535 1536 1537 1537 1538 1538 1539 1539 1540 1540 1540 1540 1541 1541 1541 1541 1542 1542 1542 1542 1543
1505 1504 1502 1503 1504 1509 1513 1515 1518 1519 1519 1521 1522 1524 1525 1526 1527 1529 1530 1530 1531 1531 1531 1532 1532 1533 1533 1533 1534 1535 1535 1535 1536 1536 1537 1537 1538 1538 1538 1538 1538 1539 1539 1539 1540 1540 1540 1541 1541
1505 1502 1505 1509 1508 1510 1513 1515 1517 1519 1519 1522 1523 1524 1525 1526 1528 1529 1529 1530 1530 1530 1530 1531 1531 1531 1531 1532 1532 1533 1533 1533 1533 1534 1534 1534 1535 1535 1535 1535 1536 1536 1536 1537 1537 1537 1538 1538 1539
1506 1506 1510 1512 1512 1513 1514 1516 1518 1517 1519 1521 1523 1524 1525 1527 1528 1528 1529 1529 1529 1529 1529 1529 1529 1529 1530 1530 1530 1530 1530 1530 1531 1531 1531 1531 1532 1532 1532 1532 1533 1533 1533 1534 1534 1535 1535 1536 1536
1507 1511 1512 1513 1514 1515 1515 1516 1518 1519 1521 1522 1523 1524 1525 1527 1527 1528 1528 1528 1528 1528 1528 1528 1528 1528 1527 1527 1527 1527 1527 1528 1528 1528 1528 1528 1528 1528 1529 1529 1529 1530 1530 1531 1531 1532 1532 1533 1533
1508 1512 1514 1515 1515 1516 1517 1518 1519 1521 1522 1523 1524 1525 1526 1526 1527 1527 1527 1527 1527 1527 1527 1526 1526 1526 1525 1525 1525 1525 1525 1525 1525 1524 1524 1524 1525 1525 1525 1526 1526 1526 1527 1527 1528 1528 1529 1529 1530
1511 1513 1515 1517 1517 1518 1518 1519 1520 1522 1523 1523 1524 1525 1525 1526 1526 1526 1526 1526 1526 1525 1525 1524 1524 1523 1523 1522 1522 1521 1521 1521 1521 1521 1521 1521 1521 1521 1521 1522 1522 1523 1523 1524 1524 1525 1525 1526 1526
1512 1513 1515 1518 1518 1519 1519 1519 1520 1522 1523 1524 1524 1524 1525 1525 1525 1525 1525 1525 1524 1524 1523 1522 1522 1521 1520 1519 1519 1518 1518 1518 1517 1517 1517 1517 1517 1517 1517 1517 1518 1519 1519 1520 1520 1521 1521 1522 1522
1512 1511 1513 1519 1519 1519 1520 1517 1521 1522 1523 1523 1524 1524 1524 1524 1524 1524 1523 1523 1522 1522 1521 1520 1520 1519 1518 1517 1516 1515 1515 1514 1514 1514 1513 1513 1513 1513 1513 1514 1514 1514 1515 1515 1516 1516 1517 1517 1518
1509 1510 1513 1518 1520 1519 1518 1516 1520 1522 1522 1522 1522 1523 1523 1523 1522 1522 1522 1521 1521 1520 1519 1518 1517 1516 1515 1514 1513 1512 1512 1511 1510 1510 1510 1510 1510 1509 1509 1510 1510 1511 1511 1511 1511 1512 1513 1513 1513
1510 1510 1514 1516 1520 1519 1517 1516 1518 1520 1521 1520 1521 1521 1521 1521 1521 1521 1520 1520 1519 1518 1517 1516 1515 1514 1513 1512 1511 1510 1509 1508 1508 1507 1507 1506 1506 1506 1506 1506 1506 1507 1507 1507 1507 1507 1508 1508 1508
1511 1512 1514 1519 1522 1520 1516 1515 1515 1517 1518 1518 1518 1518 1519 1519 1519 1519 1518 1518 1517 1516 1515 1514 1513 1512 1510 1509 1508 1507 1507 1506 1505 1504 1503 1503 1502 1502 1502 1502 1502 1502 1502 1502 1503 1503 1503 1503 1504
1514 1515 1517 1520 1523 1521 1518 1514 1512 1513 1514 1514 1515 1515 1516 1517 1517 1516 1516 1515 1515 1514 1513 1512 1511 1509 1508 1507 1506 1505 1504 1503 1502 1501 1500 1499 1499 1499 1498 1498 1498 1498 1498 1498 1498 1499 1498 1498 1499
1519 1518 1519 1521 1522 1522 1520 1509 1507 1509 1511 1512 1512 1513 1513 1514 1514 1514 1513 1513 1512 1512 1510 1509 1508 1507 1505 1504 1503 1502 1501 1500 1499 1498 1497 1496 1496 1495 1495 1495 1494 1494 1494 1494 1494 1494 1494 1494 1494
1520 1524 1523 1523 1519 1517 1520 1513 1503 1505 1507 1508 1509 1509 1510 1511 1511 1511 1511 1511 1510 1509 1508 1507 1505 1504 1503 1502 1501 1500 1498 1497 1496 1495 1494 1493 1492 1491 1491 1491 1490 1490 1490 1490 1490 1490 1490 1490 1489
1524 1526 1525 1524 1522 1521 1519 1519 1503 1504 1503 1502 1505 1506 1507 1508 1508 1508 1508 1508 1507 1506 1505 1504 1503 1502 1500 1499 1498 1497 1495 1494 1492 1491 1490 1489 1488 1488 1487 1487 1486 1486 1485 1485 1485 1485 1485 1485 1485
1526 1526 1525 1524 1521 1520 1518 1517 1504 1498 1499 1500 1502 1504 1504 1505 1505 1505 1505 1505 1504 1504 1503 1502 1500 1499 1498 1497 1495 1494 1492 1491 1489 1488 1487 1486 1485 1484 1483 1483 1482 1481 1481 1481 1481 1481 1481 1481 1480
1525 1522 1520 1518 1516 1512 1521 1519 1505 1496 1499 1500 1501 1502 1502 1503 1503 1503 1502 1502 1501 1501 1500 1499 1498 1497 1495 1494 1492 1491 1489 1488 1486 1485 1484 1482 1481 1480 1480 1479 1478 1477 1477 1477 1477 1476 1476 1476 1476
1526 1524 1522 1517 1511 1508 1519 1513 1499 1498 1499 1500 1501 1501 1501 1501 1500 1500 1500 1499 1499 1498 1497 1496 1495 1494 1493 1491 1490 1488 1486 1485 1483 1482 1480 1479 1478 1477 1476 1475 1474 1474 1473 1473 1473 1472 1472 1472 1471
1526 1525 1528 1526 1527 1522 1507 1506 1498 1496 1497 1499 1499 1499 1499 1499 1498 1498 1497 1497 1496 1495 1494 1493 1492 1491 1489 1488 1486 1485 1484 1482 1480 1479 1477 1476 1475 1474 1473 1472 1471 1470 1470 1469 1469 1468 1468 1467 1467
1530 1528 1528 1526 1521 1511 1503 1502 1496 1493 1493 1495 1496 1496 1496 1496 1496 1495 1495 1494 1493 1492 1491 1490 1489 1488 1486 1485 1483 1482 1480 1479 1478 1476 1475 1473 1472 1471 1470 1469 1468 1467 1466 1466 1465 1464 1464 1464 1463
1530 1530 1527 1525 1524 1517 1506 1495 1491 1492 1492 1493 1494 1495 1495 1494 1493 1492 1492 1491 1490 1489 1488 1487 1486 1484 1483 1481 1480 1479 1477 1476 1475 1473 1472 1470 1469 1468 1467 1466 1465 1464 1464 1463 1462 1461 1461 1460 1460
1527 1525 1525 1523 1523 1522 1515 1501 1491 1493 1493 1494 1494 1493 1492 1492 1490 1489 1488 1487 1486 1485 1485 1484 1482 1481 1480 1478 1477 1475 1474 1473 1472 1470 1469 1468 1466 1465 1464 1463 1462 1461 1460 1460 1459 1458 1458 1457 1457